SAS546 ENGM-EKCH

Flight info

Callsign SAS546
Flight time N/A
Altitude 31000
Route OKSAT6D OKSAT L996 GETPA/N0435F350 L996 KELIN DCT TOPLA/N0435F370 L996 ERNOV ERNOV4C
Aircraft E195/M-SDE3GILORVW/S

Departure

Time 2026-05-04 16:50
Airport Oslo-Gardermoen International Airport (ENGM)

Arrival

Time N/A
Airport Copenhagen Kastrup Airport (EKCH)
Time Latitude Longitude Altitude Speed Heading
2026-05-04 16:29 60.19499 11.09197 680 ft 0 kts 16°
2026-05-04 16:44 60.19489 11.08967 680 ft 2 kts 266°
2026-05-04 16:45 60.19489 11.08930 680 ft 2 kts 277°
2026-05-04 16:46 60.19687 11.08987 684 ft 19 kts 23°
2026-05-04 16:46 60.19841 11.08827 687 ft 13 kts 288°
2026-05-04 16:47 60.20063 11.08831 687 ft 25 kts 17°
2026-05-04 16:47 60.20421 11.09033 683 ft 28 kts 14°
2026-05-04 16:48 60.20671 11.08682 683 ft 17 kts 232°
2026-05-04 16:48 60.20590 11.08585 683 ft 0 kts 198°
2026-05-04 16:49 60.20488 11.08530 683 ft 41 kts 197°
2026-05-04 16:49 60.19172 11.07758 673 ft 147 kts 200°
2026-05-04 16:50 60.16985 11.06631 1201 ft 183 kts 199°
2026-05-04 16:50 60.15171 11.03511 1787 ft 161 kts 253°
2026-05-04 16:51 60.14436 10.99700 1814 ft 157 kts 258°
2026-05-04 16:51 60.14300 10.97561 2683 ft 151 kts 271°
2026-05-04 16:51 60.15103 10.93958 4333 ft 159 kts 306°
2026-05-04 16:52 60.16996 10.91324 5878 ft 179 kts 333°
2026-05-04 16:52 60.18202 10.90705 6693 ft 187 kts 345°
2026-05-04 16:53 60.21182 10.91037 7348 ft 259 kts
2026-05-04 16:53 60.27046 10.96412 8848 ft 343 kts 32°
2026-05-04 16:54 60.28880 10.99429 9998 ft 345 kts 39°
2026-05-04 16:55 60.34253 11.15921 13801 ft 377 kts 66°
2026-05-04 16:55 60.35525 11.26396 15393 ft 396 kts 81°
2026-05-04 16:56 60.35661 11.37776 16801 ft 416 kts 95°
2026-05-04 16:56 60.33599 11.55009 18938 ft 433 kts 116°
2026-05-04 16:57 60.32318 11.60496 19713 ft 434 kts 123°
2026-05-04 16:57 60.28989 11.70518 21214 ft 433 kts 138°
2026-05-04 16:58 60.22385 11.82437 23342 ft 426 kts 158°
2026-05-04 16:58 60.19819 11.85439 23996 ft 423 kts 164°
2026-05-04 16:59 60.14423 11.89675 25319 ft 414 kts 176°
2026-05-04 17:00 60.03202 11.91032 27553 ft 401 kts 200°
2026-05-04 17:00 59.95436 11.86006 29145 ft 390 kts 217°